Columbia / Mount Pleasant, TN

2:18 AM CST on December 09, 2019 (GMT -0600)
Maury County

Weather History for KMRC - November, 2019

Change the Weather History Date:

Tuesday, November 12, 2019

  Actual Average (WUND) Record (WUND)
Temperature  
Mean Temperature 22 °F -  
Max Temperature 28 °F - - (-1)
Min Temperature 15 °F - - (-1)
Degree Days  
Heating Degree Days 44    
Moisture  
Dew Point 13 °F    
Average Humidity 67    
Maximum Humidity 100    
Minimum Humidity 34    
Precipitation  
Precipitation 0.01 in - - ()
Sea Level Pressure  
Sea Level Pressure 30.38 in    
Wind  
Wind Speed 10 mph (North)    
Max Wind Speed 16 mph    
Max Gust Speed 29 mph    
Visibility 10 miles    
Events      
Averages and records for this station are not official NWS values.
T = Trace of Precipitation, MM = Missing Value Source: NWS Daily Summary

Daily Weather History Graph

Daily Weather History Graph

Search for Another Location

Airport or City:

Astronomy

Nov. 12, 2019 Rise Set
Actual Time 6:21 AM CST 4:44 PM CST
Civil Twilight 5:54 AM CST 5:11 PM CST
Nautical Twilight 5:23 AM CST 5:41 PM CST
Astronomical Twilight 4:53 AM CST 6:11 PM CST
Moon 5:10 PM CST (11/12) 6:13 AM CST (11/12)
Length of Visible Light 11h 16m
Length of Day
10h 23m
Full, 100% of the Moon is Illuminated
Nov 12
Full
Nov 19
Last Quarter
Nov 26
New
Dec 4
First Quarter
Dec 11
Full

Hourly Weather History & Observations

Time (CST) Temp. Windchill Dew Point Humidity Pressure Visibility Wind Dir Wind Speed Gust Speed Precip Events Conditions
12:15 AM 28.4 °F 19.1 °F 28.4 °F 100% 30.23 in 4.0 mi NNW 10.4 mph 17.3 mph N/A   Overcast
12:35 AM 28.4 °F 19.7 °F 28.4 °F 100% 30.24 in 3.0 mi NNW 9.2 mph 15.0 mph N/A   Overcast
12:55 AM 28.4 °F 18.5 °F 28.4 °F 100% 30.23 in 6.0 mi North 11.5 mph 23.0 mph 0.01 in   Overcast
1:15 AM 28.4 °F 18.5 °F 28.4 °F 100% 30.25 in 8.0 mi North 11.5 mph 21.9 mph N/A   Overcast
1:35 AM 26.6 °F 15.7 °F 26.6 °F 100% 30.25 in 10.0 mi North 12.7 mph 20.7 mph N/A   Overcast
1:55 AM 26.6 °F 17.5 °F 26.6 °F 100% 30.26 in 10.0 mi North 9.2 mph 17.3 mph N/A   Overcast
2:15 AM 26.6 °F 14.3 °F 24.8 °F 93% 30.27 in 10.0 mi North 16.1 mph 24.2 mph N/A   Overcast
2:35 AM 26.6 °F 15.7 °F 24.8 °F 93% 30.27 in 10.0 mi North 12.7 mph 21.9 mph N/A   Overcast
2:55 AM 24.8 °F 13.4 °F 24.8 °F 100% 30.27 in 10.0 mi NNW 12.7 mph 23.0 mph N/A   Overcast
3:15 AM 24.8 °F 15.3 °F 24.8 °F 100% 30.28 in 10.0 mi North 9.2 mph 16.1 mph N/A   Overcast
3:35 AM 24.8 °F 14.0 °F 24.8 °F 100% 30.28 in 10.0 mi NNW 11.5 mph 20.7 mph N/A   Overcast
3:55 AM 24.8 °F 12.4 °F 24.8 °F 100% 30.29 in 10.0 mi North 15.0 mph 28.8 mph N/A   Overcast
4:15 AM 24.8 °F 13.4 °F 24.8 °F 100% 30.30 in 10.0 mi North 12.7 mph 23.0 mph N/A   Overcast
4:35 AM 24.8 °F 14.6 °F 24.8 °F 100% 30.32 in 10.0 mi North 10.4 mph 21.9 mph N/A   Overcast
4:55 AM 24.8 °F 14.0 °F 23.0 °F 93% 30.33 in 10.0 mi North 11.5 mph 24.2 mph N/A   Overcast
5:15 AM 23.0 °F 11.7 °F 21.2 °F 93% 30.34 in 10.0 mi North 11.5 mph 20.7 mph N/A   Overcast
5:35 AM 23.0 °F 13.1 °F 21.2 °F 93% 30.35 in 10.0 mi North 9.2 mph 20.7 mph N/A   Overcast
6:15 AM 21.2 °F 8.9 °F 19.4 °F 93% 30.37 in 10.0 mi NNW 12.7 mph 19.6 mph N/A   Overcast
6:35 AM 21.2 °F 8.9 °F 17.6 °F 86% 30.38 in 10.0 mi NNW 12.7 mph 23.0 mph N/A   Overcast
6:55 AM 21.2 °F 9.5 °F 15.8 °F 80% 30.39 in 10.0 mi NNW 11.5 mph - N/A   Overcast
7:15 AM 19.4 °F 7.9 °F 14.0 °F 80% 30.41 in 10.0 mi NNW 10.4 mph 20.7 mph N/A   Overcast
7:35 AM 19.4 °F 7.2 °F 12.2 °F 74% 30.41 in 10.0 mi NNW 11.5 mph 20.7 mph N/A   Overcast
7:55 AM 19.4 °F 7.2 °F 14.0 °F 80% 30.42 in 10.0 mi North 11.5 mph 20.7 mph N/A   Overcast
8:15 AM 19.4 °F 8.6 °F 12.2 °F 74% 30.43 in 10.0 mi NNW 9.2 mph 19.6 mph N/A   Mostly Cloudy
8:35 AM 19.4 °F 7.2 °F 10.4 °F 68% 30.43 in 10.0 mi North 11.5 mph 23.0 mph N/A   Scattered Clouds
8:55 AM 21.2 °F 10.9 °F 10.4 °F 63% 30.43 in 10.0 mi NW 9.2 mph 17.3 mph N/A   Partly Cloudy
9:15 AM 21.2 °F 8.3 °F 10.4 °F 63% 30.44 in 10.0 mi North 13.8 mph 19.6 mph N/A   Clear
9:35 AM 21.2 °F 9.5 °F 8.6 °F 58% 30.44 in 10.0 mi NNW 11.5 mph 19.6 mph N/A   Clear
9:55 AM 23.0 °F 11.1 °F 10.4 °F 59% 30.44 in 10.0 mi North 12.7 mph - N/A   Clear
10:15 AM 23.0 °F 11.7 °F 10.4 °F 59% 30.44 in 10.0 mi NNW 11.5 mph - N/A   Clear
10:35 AM 23.0 °F 11.1 °F 8.6 °F 54% 30.43 in 10.0 mi North 12.7 mph - N/A   Clear
10:55 AM 24.8 °F 16.1 °F 10.4 °F 54% 30.43 in 10.0 mi North 8.1 mph 18.4 mph N/A   Clear
11:15 AM 24.8 °F 13.4 °F 10.4 °F 54% 30.43 in 10.0 mi NW 12.7 mph - N/A   Clear
11:35 AM 24.8 °F 14.0 °F 10.4 °F 54% 30.42 in 10.0 mi NNW 11.5 mph 18.4 mph N/A   Clear
11:55 AM 26.6 °F 16.8 °F 8.6 °F 47% 30.41 in 10.0 mi North 10.4 mph 17.3 mph N/A   Clear
12:15 PM 26.6 °F 16.2 °F 8.6 °F 47% 30.41 in 10.0 mi North 11.5 mph 17.3 mph N/A   Clear
12:35 PM 26.6 °F 16.8 °F 8.6 °F 47% 30.40 in 10.0 mi NNW 10.4 mph 19.6 mph N/A   Clear
12:55 PM 26.6 °F 16.8 °F 8.6 °F 47% 30.39 in 10.0 mi NNW 10.4 mph - N/A   Clear
1:15 PM 28.4 °F 18.5 °F 8.6 °F 43% 30.39 in 10.0 mi North 11.5 mph 19.6 mph N/A   Clear
1:35 PM 28.4 °F 19.7 °F 6.8 °F 40% 30.39 in 10.0 mi NNW 9.2 mph 18.4 mph N/A   Clear
1:55 PM 28.4 °F 18.5 °F 6.8 °F 40% 30.38 in 10.0 mi North 11.5 mph 20.7 mph N/A   Clear
2:15 PM 28.4 °F 18.5 °F 6.8 °F 40% 30.39 in 10.0 mi North 11.5 mph 19.6 mph N/A   Clear
2:55 PM 28.4 °F 18.5 °F 3.2 °F 34% 30.39 in 10.0 mi North 11.5 mph 20.7 mph N/A   Clear
3:15 PM 28.4 °F 18.5 °F 5.0 °F 37% 30.39 in 10.0 mi North 11.5 mph 18.4 mph N/A   Clear
3:35 PM 26.6 °F 16.8 °F 3.2 °F 37% 30.40 in 10.0 mi NNW 10.4 mph 20.7 mph N/A   Clear
3:55 PM 26.6 °F 15.7 °F 5.0 °F 40% 30.39 in 10.0 mi North 12.7 mph - N/A   Clear
4:15 PM 26.6 °F 17.5 °F 5.0 °F 40% 30.39 in 10.0 mi North 9.2 mph 16.1 mph N/A   Clear
4:35 PM 24.8 °F 15.3 °F 5.0 °F 43% 30.39 in 10.0 mi North 9.2 mph 15.0 mph N/A   Clear
4:55 PM 24.8 °F 14.6 °F 5.0 °F 43% 30.39 in 10.0 mi North 10.4 mph - N/A   Clear
5:15 PM 23.0 °F 13.9 °F 5.0 °F 46% 30.40 in 10.0 mi North 8.1 mph - N/A   Clear
5:35 PM 23.0 °F - 6.8 °F 50% 30.40 in 10.0 mi Calm Calm 11.5 mph N/A   Clear
5:55 PM 23.0 °F - 6.8 °F 50% 30.41 in 10.0 mi North - - N/A   Clear
6:15 PM 21.2 °F 13.6 °F 6.8 °F 54% 30.42 in 10.0 mi North 5.8 mph - N/A   Clear
6:35 PM 21.2 °F 12.6 °F 6.8 °F 54% 30.43 in 10.0 mi North 6.9 mph - N/A   Clear
6:55 PM 21.2 °F 12.6 °F 6.8 °F 54% 30.43 in 10.0 mi North 6.9 mph - N/A   Clear
7:15 PM 21.2 °F 12.6 °F 6.8 °F 54% 30.43 in 10.0 mi Variable 6.9 mph - N/A   Clear
7:35 PM 21.2 °F 12.6 °F 6.8 °F 54% 30.44 in 10.0 mi North 6.9 mph - N/A   Clear
7:55 PM 19.4 °F 10.4 °F 6.8 °F 58% 30.44 in 10.0 mi North 6.9 mph - N/A   Clear
8:15 PM 19.4 °F 10.4 °F 6.8 °F 58% 30.45 in 10.0 mi North 6.9 mph - N/A   Clear
8:35 PM 19.4 °F 10.4 °F 6.8 °F 58% 30.45 in 10.0 mi Variable 6.9 mph - N/A   Clear
8:55 PM 19.4 °F 11.5 °F 6.8 °F 58% 30.44 in 10.0 mi NNE 5.8 mph - N/A   Clear
9:15 PM 19.4 °F 12.8 °F 8.6 °F 63% 30.43 in 10.0 mi North 4.6 mph - N/A   Clear
9:55 PM 17.6 °F 12.3 °F 8.6 °F 68% 30.42 in 10.0 mi North 3.5 mph - N/A   Clear
10:15 PM 17.6 °F - 8.6 °F 68% 30.43 in 10.0 mi Calm Calm - N/A   Clear
10:35 PM 17.6 °F 12.3 °F 8.6 °F 68% 30.42 in 10.0 mi North 3.5 mph - N/A   Clear
10:55 PM 17.6 °F - 8.6 °F 68% 30.41 in 10.0 mi Calm Calm - N/A   Clear
11:15 PM 17.6 °F - 8.6 °F 68% 30.41 in 10.0 mi Calm Calm - N/A   Clear
11:35 PM 15.8 °F 10.2 °F 8.6 °F 73% 30.41 in 10.0 mi NNW 3.5 mph - N/A   Clear
11:55 PM 15.8 °F - 8.6 °F 73% 30.40 in 10.0 mi Calm Calm - N/A   Clear